Location: ??????
(38.0131°N, 23.7723°E)
Time: 18:42:37
(UTC+00:00)

METEOR 2-5 DEB - Pass Details

Date: 20 August 2022
Orbit: 809 x 849 km, 81.2° (Epoch: 29 September)

Event Time Altitude Azimuth Distance (km) Brightness Sun altitude
Rises 18:03:42 0° 360° (N) 3,346 ? -10.4°
Reaches altitude 10° 18:06:19 10° 9° (N) 2,406 ? -10.9°
Maximum altitude 18:11:15 35° 75° (ENE) 1,286 ? -11.7°
Enters shadow 18:15:03 16° 134° (SE) 2,020 ? -12.4°
